• în România
  • Lista ţărilor
  • Pe 7 zile
  • Temperatura apei
  • Hartă satelitară
  • Meteo pe hartă
  • Widget-uri
  • user-avatar
    Intrare

    Meteo pe oră la Dudachnyy

    Astăzi, 23 Iunie, Sâmbătă

    Timp Temperatura Precipitaţii Vânt Presiune Umiditate
    00:00 +16°C° 0 mm 2 m/s 752 mmHg 81%
    01:00 +15°C° 0 mm 2 m/s 753 mmHg 83%
    02:00 +15°C° 0 mm 2 m/s 753 mmHg 84%
    03:00 +14°C° 0 mm 2 m/s 753 mmHg 85%
    04:00 +15°C° 0 mm 2 m/s 753 mmHg 81%
    05:00 +17°C° 0 mm 2 m/s 753 mmHg 77%
    06:00 +18°C° 0 mm 2 m/s 754 mmHg 73%
    07:00 +20°C° 0 mm 2 m/s 753 mmHg 66%
    08:00 +23°C° 0 mm 2 m/s 753 mmHg 59%
    09:00 +24°C° 0 mm 3 m/s 753 mmHg 49%
    10:00 +25°C° 0 mm 3 m/s 753 mmHg 46%
    11:00 +26°C° 0 mm 3 m/s 754 mmHg 43%
    12:00 +27°C° 0 mm 3 m/s 754 mmHg 39%
    13:00 +27°C° 0 mm 3 m/s 753 mmHg 40%
    14:00 +28°C° 0 mm 3 m/s 753 mmHg 41%
    15:00 +28°C° 0 mm 3 m/s 753 mmHg 42%
    16:00 +28°C° 0 mm 3 m/s 753 mmHg 46%
    17:00 +27°C° 0 mm 2 m/s 753 mmHg 51%
    18:00 +27°C° 0 mm 2 m/s 753 mmHg 56%
    19:00 +25°C° 0 mm 1 m/s 753 mmHg 61%
    20:00 +23°C° 0 mm 1 m/s 753 mmHg 66%
    21:00 +21°C° 0 mm 1 m/s 753 mmHg 71%
    22:00 +18°C° 0 mm 0 m/s 753 mmHg 73%
    23:00 +18°C° 0 mm 0 m/s 754 mmHg 75%

    Mâine, 24 Iunie, Duminică

    Timp Temperatura Precipitaţii Vânt Presiune Umiditate
    00:00 +17°C° 0 mm 0 m/s 754 mmHg 77%
    01:00 +17°C° 0 mm 0 m/s 754 mmHg 78%
    02:00 +17°C° 0 mm 0 m/s 754 mmHg 80%
    03:00 +16°C° 0 mm 0 m/s 754 mmHg 81%
    04:00 +18°C° 0 mm 0 m/s 754 mmHg 77%
    05:00 +19°C° 0 mm 0 m/s 754 mmHg 73%
    06:00 +21°C° 0 mm 0 m/s 755 mmHg 69%
    07:00 +24°C° 0 mm 1 m/s 755 mmHg 65%
    08:00 +26°C° 0 mm 1 m/s 755 mmHg 60%
    09:00 +28°C° 0 mm 1 m/s 755 mmHg 56%
    10:00 +29°C° 0 mm 1 m/s 755 mmHg 53%
    11:00 +29°C° 0 mm 1 m/s 755 mmHg 49%
    12:00 +30°C° 0 mm 1 m/s 755 mmHg 46%
    13:00 +31°C° 0 mm 1 m/s 755 mmHg 46%
    14:00 +31°C° 0 mm 1 m/s 755 mmHg 45%
    15:00 +31°C° 0 mm 1 m/s 755 mmHg 44%
    16:00 +31°C° 0 mm 1 m/s 755 mmHg 48%
    17:00 +31°C° 0 mm 1 m/s 755 mmHg 51%
    18:00 +30°C° 0 mm 1 m/s 755 mmHg 55%
    19:00 +29°C° 0 mm 1 m/s 755 mmHg 60%
    20:00 +27°C° 0 mm 1 m/s 755 mmHg 64%
    21:00 +25°C° 0 mm 1 m/s 755 mmHg 68%
    22:00 +24°C° 0 mm 1 m/s 755 mmHg 70%
    23:00 +24°C° 0 mm 1 m/s 756 mmHg 73%

    Poimâine, 25 Iunie, Luni

    Timp Temperatura Precipitaţii Vânt Presiune Umiditate
    00:00 +23°C° 0 mm 1 m/s 756 mmHg 75%
    01:00 +23°C° 0 mm 1 m/s 756 mmHg 76%
    02:00 +22°C° 0 mm 1 m/s 756 mmHg 77%
    03:00 +22°C° 0 mm 1 m/s 756 mmHg 78%
    04:00 +23°C° 0 mm 1 m/s 756 mmHg 75%
    05:00 +24°C° 0 mm 1 m/s 756 mmHg 72%
    06:00 +25°C° 0 mm 1 m/s 757 mmHg 68%
    07:00 +27°C° 0 mm 1 m/s 757 mmHg 63%
    08:00 +28°C° 0 mm 1 m/s 757 mmHg 58%
    09:00 +30°C° 0 mm 1 m/s 757 mmHg 53%
    10:00 +31°C° 0 mm 1 m/s 757 mmHg 51%
    11:00 +32°C° 0 mm 1 m/s 757 mmHg 48%
    12:00 +32°C° 0 mm 1 m/s 757 mmHg 46%
    13:00 +33°C° 0 mm 1 m/s 756 mmHg 45%
    14:00 +33°C° 0 mm 1 m/s 756 mmHg 44%
    15:00 +33°C° 0 mm 1 m/s 756 mmHg 42%
    16:00 +33°C° 0 mm 1 m/s 756 mmHg 46%
    17:00 +32°C° 0 mm 1 m/s 756 mmHg 50%
    18:00 +32°C° 0 mm 1 m/s 756 mmHg 55%
    19:00 +30°C° 0 mm 1 m/s 756 mmHg 60%
    20:00 +28°C° 0 mm 1 m/s 756 mmHg 65%
    21:00 +26°C° 0 mm 2 m/s 756 mmHg 70%
    22:00 +25°C° 0 mm 1 m/s 756 mmHg 74%
    23:00 +25°C° 0 mm 1 m/s 756 mmHg 78%

    26 Iunie, Marţi

    Timp Temperatura Precipitaţii Vânt Presiune Umiditate
    00:00 +24°C° 0 mm 1 m/s 756 mmHg 82%
    01:00 +24°C° 0 mm 1 m/s 756 mmHg 83%
    02:00 +24°C° 0 mm 1 m/s 757 mmHg 85%
    03:00 +23°C° 0 mm 1 m/s 757 mmHg 86%
    04:00 +24°C° 0 mm 1 m/s 757 mmHg 82%
    05:00 +25°C° 0 mm 1 m/s 757 mmHg 79%
    06:00 +27°C° 0 mm 1 m/s 757 mmHg 75%
    07:00 +28°C° 0,1 mm 1 m/s 757 mmHg 70%
    08:00 +29°C° 0,1 mm 2 m/s 757 mmHg 65%
    09:00 +30°C° 0,1 mm 2 m/s 757 mmHg 60%
    10:00 +31°C° 0 mm 2 m/s 757 mmHg 56%
    11:00 +33°C° 0 mm 3 m/s 757 mmHg 53%
    12:00 +34°C° 0 mm 3 m/s 756 mmHg 49%
    13:00 +34°C° 0 mm 3 m/s 756 mmHg 48%
    14:00 +34°C° 0 mm 3 m/s 756 mmHg 47%
    15:00 +34°C° 0 mm 4 m/s 756 mmHg 47%
    16:00 +33°C° 0 mm 3 m/s 756 mmHg 52%
    17:00 +31°C° 0 mm 3 m/s 756 mmHg 56%
    18:00 +31°C° 0 mm 3 m/s 756 mmHg 61%
    19:00 +29°C° 0 mm 3 m/s 756 mmHg 67%
    20:00 +27°C° 0 mm 3 m/s 757 mmHg 72%
    21:00 +26°C° 0 mm 2 m/s 757 mmHg 78%
    22:00 +25°C° 0 mm 2 m/s 757 mmHg 81%
    23:00 +24°C° 0 mm 3 m/s 757 mmHg 84%

    27 Iunie, Miercuri

    Timp Temperatura Precipitaţii Vânt Presiune Umiditate
    00:00 +24°C° 0 mm 3 m/s 757 mmHg 86%
    01:00 +22°C° 0 mm 3 m/s 757 mmHg 85%
    02:00 +22°C° 0 mm 3 m/s 757 mmHg 85%
    03:00 +21°C° 0 mm 3 m/s 757 mmHg 84%
    04:00 +22°C° 0 mm 3 m/s 757 mmHg 80%
    05:00 +24°C° 0 mm 3 m/s 757 mmHg 76%
    06:00 +25°C° 0 mm 3 m/s 757 mmHg 72%
    07:00 +26°C° 0 mm 3 m/s 757 mmHg 68%
    08:00 +28°C° 0 mm 4 m/s 756 mmHg 64%
    09:00 +29°C° 0 mm 4 m/s 756 mmHg 60%
    10:00 +30°C° 0 mm 4 m/s 756 mmHg 56%
    11:00 +32°C° 0 mm 4 m/s 756 mmHg 52%
    12:00 +33°C° 0 mm 4 m/s 756 mmHg 49%
    13:00 +33°C° 0 mm 4 m/s 756 mmHg 49%
    14:00 +33°C° 0 mm 4 m/s 755 mmHg 48%
    15:00 +33°C° 0 mm 4 m/s 755 mmHg 48%
    16:00 +33°C° 0 mm 4 m/s 755 mmHg 53%
    17:00 +31°C° 0 mm 3 m/s 755 mmHg 58%
    18:00 +30°C° 0 mm 3 m/s 755 mmHg 63%
    19:00 +29°C° 0 mm 3 m/s 755 mmHg 68%
    20:00 +27°C° 0 mm 3 m/s 755 mmHg 73%
    21:00 +25°C° 0 mm 2 m/s 755 mmHg 79%
    22:00 +25°C° 0,5 mm 2 m/s 755 mmHg 82%
    23:00 +24°C° 0,5 mm 2 m/s 755 mmHg 84%

    28 Iunie, Joi

    Timp Temperatura Precipitaţii Vânt Presiune Umiditate
    00:00 +23°C° 0,5 mm 2 m/s 755 mmHg 87%
    01:00 +23°C° 0 mm 2 m/s 755 mmHg 89%
    02:00 +21°C° 0 mm 2 m/s 755 mmHg 90%
    03:00 +21°C° 0 mm 2 m/s 755 mmHg 91%
    04:00 +22°C° 0 mm 3 m/s 755 mmHg 88%
    05:00 +24°C° 0 mm 3 m/s 755 mmHg 85%
    06:00 +25°C° 0 mm 3 m/s 755 mmHg 82%
    07:00 +26°C° 0 mm 4 m/s 755 mmHg 76%
    08:00 +28°C° 0 mm 4 m/s 755 mmHg 70%
    09:00 +29°C° 0 mm 4 m/s 755 mmHg 64%
    10:00 +30°C° 0 mm 4 m/s 755 mmHg 61%
    11:00 +32°C° 0 mm 4 m/s 755 mmHg 58%
    12:00 +33°C° 0 mm 5 m/s 755 mmHg 54%
    13:00 +33°C° 0 mm 5 m/s 754 mmHg 54%
    14:00 +33°C° 0 mm 5 m/s 754 mmHg 54%
    15:00 +33°C° 0 mm 5 m/s 754 mmHg 53%
    16:00 +32°C° 0 mm 5 m/s 754 mmHg 57%
    17:00 +30°C° 0 mm 5 m/s 754 mmHg 61%
    18:00 +29°C° 0 mm 4 m/s 754 mmHg 65%
    19:00 +28°C° 0 mm 4 m/s 755 mmHg 70%
    20:00 +26°C° 0 mm 4 m/s 755 mmHg 74%
    21:00 +23°C° 0 mm 4 m/s 755 mmHg 79%
    22:00 +23°C° 0 mm 4 m/s 755 mmHg 80%
    23:00 +22°C° 0 mm 4 m/s 755 mmHg 82%
    Arată mai mult